This demonstration page uses our WeatherBlox Daily Observations layout. Learn more.

Left ArrowRight Arrow

31.84235, -102.49876

Hourly Observations for July 29, 2022

Temp ( °F °C ) Dew Point ( °F °C ) Humidity (%) Winds ( mph kmh ) Pressure ( in mb ) Visibility ( mi km ) Precip ( " mm )
12:53 am 00:53 Clear 87 30.6 58 14.4 37 37 S 13 20 29.87 1012 10 16 0.00 0.00
1:53 am 01:53 Clear 86 30 58 14.4 39 39 S 16 26 29.87 1012 10 16 0.00 0.00
2:53 am 02:53 Clear 84 28.9 58 14.4 41 41 S 10 17 29.86 1011 10 16 0.00 0.00
3:53 am 03:53 Clear 82 27.8 58 14.4 44 44 S 7 11 29.87 1012 10 16 0.00 0.00
4:53 am 04:53 Clear 81 27.2 58 14.4 45 45 S 8 13 29.87 1012 10 16 0.00 0.00
5:53 am 05:53 Clear 80 26.7 58 14.4 47 47 S 9 15 29.87 1012 10 16 0.00 0.00
6:53 am 06:53 Clear 78 25.6 58 14.4 50 50 SSE 8 13 29.89 1012 10 16 0.00 0.00
7:53 am 07:53 Sunny 79 26.1 61 16.1 54 54 SSE 9 15 29.91 1013 10 16 0.00 0.00
8:53 am 08:53 Sunny 81 27.2 64 17.8 57 57 S 16 26 29.93 1014 10 16 0.00 0.00
9:53 am 09:53 Sunny 84 28.9 64 17.8 51 51 S 14 22 29.93 1014 10 16 0.00 0.00
10:53 am 10:53 Sunny 87 30.6 64 17.8 46 46 SSE 13 20 29.93 1013 10 16 0.00 0.00
11:53 am 11:53 Sunny 91 32.8 62 16.7 38 38 SSE 16 26 29.93 1013 10 16 0.00 0.00
12:53 pm 12:53 Mostly Sunny 92 33.3 59 15 33 33 SE 13 20 29.91 1013 10 16 0.00 0.00
1:53 pm 13:53 Partly Cloudy 94 34.4 58 14.4 30 30 SSE 14 22 29.90 1013 10 16 0.00 0.00
2:53 pm 14:53 Mostly Sunny 95 35 56 13.3 27 27 SSE 14 22 29.88 1012 10 16 0.00 0.00
3:53 pm 15:53 Mostly Sunny 95 35 56 13.3 27 27 SE 9 15 29.86 1011 10 16 0.00 0.00
4:53 pm 16:53 Mostly Sunny 97 36.1 57 13.9 26 26 SSE 18 30 29.84 1011 10 16 0.00 0.00
5:53 pm 17:53 Mostly Sunny 97 36.1 56 13.3 25 25 SE 15 24 29.81 1010 10 16 0.00 0.00
6:53 pm 18:53 Sunny 97 36.1 55 12.8 24 24 SE 16 26 29.80 1009 10 16 0.00 0.00
7:53 pm 19:53 Sunny 95 35 54 12.2 25 25 SSE 16 26 29.82 1010 10 16 0.00 0.00
8:53 pm 20:53 Clear 93 33.9 54 12.2 27 27 SSE 13 20 29.84 1011 10 16 0.00 0.00
9:53 pm 21:53 Clear 91 32.8 55 12.8 30 30 S 15 24 29.86 1011 10 16 0.00 0.00
10:53 pm 22:53 Clear 89 31.7 54 12.2 30 30 S 12 19 29.89 1012 10 16 0.00 0.00
11:53 pm 23:53 Clear 88 31.1 55 12.8 33 33 S 13 20 29.91 1013 10 16 0.00 0.00

Powered by AerisWeather